SCP
0 0 0 0 0 0 0 0 0 0 0 0 0 0 0 0 0 0 0 0 0 1 1 1 1 0 0 0 0 0 0 1 1 1 1 1 1 1 1 1 0 0 0 0
0 0 0 0 0 0 0 0 0 0 0 1 0 0 0 0 0 0 0 0 0 0 0 0 0 0 0 0 0 0 0 0 0 0 0 1 1 1 1 1 1 1 1 1
0 0 0 0 0 0 0 0 0 0 1 1 0 0 0 0 0 0 0 0 0 0 0 0 0 0 0 0 0 0 0 0 0 0 0 0 0 0 0 1 1 1 1 1
0 0 0 0 0 0 1 1 1 1 1 1 0 0 0 0 0 0 0 0 0 0 0 0 0 0 0 0 0 0 0 0 0 0 0 0 0 0 0 0 0 1 0 0
0 0 0 0 0 0 0 0 1 1 1 1 0 0 0 0 0 0 0 0 0 0 0 0 0 0 0 0 0 0 0 0 0 0 0 0 0 0 0 0 0 0 0 0
0 0 0 0 0 0 0 0 1 1 1 0 0 0 0 0 0 0 0 0 0 0 0 0 0 0 0 0 0 0 0 0 0 0 0 0 0 0 0 0 0 0 0 0
0 0 0 0 0 0 0 0 0 1 0 0 0 1 0 0 0 0 0 0 0 0 0 0 0 0 0 0 0 0 0 0 0 0 0 0 0 0 0 0 0 0 0 0
0 0 0 0 0 0 0 0 0 1 1 0 0 0 0 0 0 0 0 0 0 0 0 0 0 0 0 0 0 0 0 0 0 0 0 0 0 0 0 0 0 0 0 0
0 0 0 0 0 0 0 0 0 0 0 0 0 0 0 0 0 0 0 0 0 0 0 0 0 0 0 0 0 0 0 0 0 0 0 0 0 0 0 0 0 0 0 0
0 0 0 0 0 0 0 0 0 0 0 0 0 0 0 0 0 0 0 0 0 0 0 0 0 0 0 0 0 0 0 0 0 0 0 0 0 0 0 0 0 0 0 0
0 0 0 0 0 0 0 0 0 0 0 0 0 0 0 0 0 0 0 0 0 0 0 0 0 0 0 0 0 0 0 0 0 0 0 0 0 0 0 0 0 0 0 0
0 0 0 0 0 0 0 0 0 0 0 0 0 0 0 0 0 0 0 0 0 0 0 0 0 0 0 0 0 0 0 0 0 0 0 0 0 0 0 0 0 0 0 0
0 0 0 0 0 0 0 0 0 0 0 0 0 0 0 0 0 0 0 0 0 0 0 0 0 0 0 0 0 0 0 0 0 0 0 0 0 0 0 0 0 0 0 0
0 0 0 0 0 0 0 0 0 0 0 0 0 0 0 0 0 0 0 0 0 0 0 0 -0 0 0 0 0 0 0 0 0 0 0 0 0 0 0 0 0 0 0 0
0 0 0 0 0 0 0 0 0 0 0 0 0 0 0 0 -0 0 -0 0 -0 -0 0 0 0 0 0 0 0 0 0 0 0 0 0 0 0 0 0 0 0 0 0 0
0 0 0 0 0 0 0 0 0 0 0 0 0 0 0 0 0 0 0 0 0 0 0 0 0 0 0 0 0 0 0 0 0 0 0 0 0 0 0 0 0 0 0 0
0 -0 0 0 0 0 0 0 0 0 0 0 0 0 0 0 0 0 0 0 0 0 0 0 0 0 0 0 0 0 0 0 0 0 0 0 0 0 0 0 0 0 0 0
0 0 0 0 0 0 0 0 0 0 0 0 0 0 0 0 0 0 0 0 0 0 0 0 0 0 0 0 0 0 0 0 0 0 0 0 0 0 0 0 0 0 0 0
0 0 0 0 0 0 0 0 0 0 0 0 0 0 0 0 0 0 0 0 0 0 0 0 0 0 0 0 0 0 0 0 0 0 0 0 0 0 0 0 0 0 0 0
0 0 0 0 0 0 0 0 0 0 0 0 0 0 0 0 0 0 0 0 0 0 0 0 0 0 0 0 0 0 0 0 0 0 0 0 0 0 0 0 0 0 0 0
0 0 0 0 0 0 0 0 0 0 0 0 0 0 0 0 0 0 0 0 0 0 0 0 0 0 0 0 0 0 0 0 0 0 0 0 0 0 0 0 0 0 0 0
0 0 0 0 0 0 0 0 0 0 0 0 0 0 0 0 0 0 0 0 0 0 0 0 0 0 0 0 0 0 0 0 0 0 0 0 0 0 0 0 0 0 0 0
0 0 0 0 0 0 0 0 0 0 0 0 0 0 0 0 0 0 0 0 0 0 0 0 0 0 0 0 0 0 0 0 0 0 0 0 0 0 0 0 0 0 0 0
0 0 0 0 0 0 0 0 0 0 0 0 0 0 0 0 0 0 0 0 0 0 0 0 0 0 0 0 0 0 0 0 0 0 0 0 0 0 0 0 0 0 0 0
0 0 0 0 0 0 0 0 0 0 0 0 0 0 0 0 0 0 0 0 0 0 0 0 0 0 0 0 0 0 0 0 0 0 0 0 0 0 0 0 0 0 0 0
0 0 0 0 0 0 0 0 0 0 0 0 0 0 0 0 0 0 0 0 0 0 0 0 0 0 0 0 0 0 0 0 0 0 0 0 0 0 0 0 0 0 0 0
0 0 0 0 0 0 0 0 0 0 0 0 0 0 0 0 0 0 0 0 0 0 0 0 0 0 0 0 0 0 0 0 0 0 0 0 0 0 0 0 0 0 0 0
Wind_Speed_500mb
19 9 8 8 21 29 34 34 34 20 28 20 27 27 31 32 29 30 27 23 36 27 33 42 50 47 44 46 39 46 51 45 38 40 37 28 27 27 27 26 22 20 18 22
15 7 10 9 8 20 29 24 26 17 13 9 25 29 30 29 29 27 25 17 25 32 28 34 41 48 47 39 36 27 22 21 29 39 38 38 29 25 24 25 25 22 18 17
22 15 15 22 5 2 5 10 15 22 7 21 24 25 28 27 26 25 23 19 22 32 37 39 44 51 42 38 33 29 23 25 27 25 33 37 30 21 17 16 15 14 13 18
13 11 25 18 10 12 5 3 7 8 4 18 26 25 25 24 24 24 23 25 27 28 41 53 49 46 48 40 26 36 32 32 27 27 28 31 37 30 27 16 18 12 18 17
16 21 6 16 9 13 14 13 14 3 8 24 30 31 19 22 24 24 26 28 29 32 30 51 46 42 33 28 33 38 33 29 30 25 30 29 28 26 24 24 17 20 20 17
7 19 15 18 13 15 14 7 20 9 12 28 36 15 10 24 27 29 25 29 31 33 35 41 43 41 40 39 39 37 36 31 27 25 25 23 24 26 22 21 26 20 18 20
10 10 8 13 18 10 15 9 21 11 12 31 21 11 41 33 32 32 37 40 38 38 43 41 36 33 36 36 34 32 31 33 32 28 26 25 27 25 22 23 25 24 22 19
7 14 15 27 3 11 17 17 18 7 8 21 9 31 43 41 45 42 44 46 45 42 39 37 34 27 26 26 30 31 29 28 29 33 26 27 26 25 27 30 23 18 13 9
8 10 7 12 13 16 19 18 13 8 7 26 26 36 43 43 48 48 50 45 44 41 36 29 25 20 18 21 23 24 24 25 26 25 26 30 28 27 24 23 20 18 13 11
5 11 9 6 9 17 22 20 14 2 13 21 31 42 44 44 46 52 49 45 36 29 22 19 16 14 11 14 17 19 19 19 20 19 21 22 19 17 13 13 11 11 9 9
7 10 7 8 11 15 18 19 18 12 15 22 32 40 42 47 47 39 41 32 29 27 21 16 8 7 10 13 14 13 13 14 14 15 18 20 20 19 20 19 19 15 11 13
2 9 2 9 5 8 13 16 16 15 13 18 28 40 41 44 54 52 37 35 31 24 15 7 5 5 7 11 15 15 14 13 15 14 14 13 15 17 17 15 14 12 8 4
2 3 2 2 4 5 8 8 9 10 14 19 24 34 42 52 45 32 28 24 25 16 6 3 2 6 8 11 14 17 16 17 17 17 16 17 16 14 15 16 14 11 8 6
7 6 9 4 3 5 2 2 6 10 13 16 23 32 48 29 28 23 18 16 16 10 4 0 4 8 10 12 15 17 18 19 15 15 16 17 18 17 14 12 10 10 9 8
9 7 5 6 4 2 1 8 10 11 14 18 24 39 43 38 35 35 31 26 22 15 13 13 16 21 19 18 20 21 19 18 19 17 17 18 18 17 16 15 13 10 5 6
12 11 10 10 9 9 9 9 17 19 19 21 26 33 37 29 33 36 37 37 32 24 18 18 22 23 26 30 31 26 24 26 23 20 22 18 16 16 14 12 11 9 6 3
13 12 13 13 12 11 10 14 15 20 23 23 24 26 28 28 29 32 37 36 28 22 22 25 24 26 27 29 28 25 22 25 27 21 19 18 15 14 13 13 12 9 4 4
12 10 9 10 10 10 10 7 12 17 19 21 22 23 24 28 30 32 32 29 26 25 26 24 26 24 28 31 29 23 22 22 22 19 19 18 17 17 16 14 12 9 6 6
13 11 9 6 7 9 8 8 12 17 18 18 14 14 16 17 24 27 29 29 28 29 28 27 28 22 25 29 29 26 25 25 25 24 24 25 25 20 18 17 14 12 9 7
17 14 10 11 12 14 15 15 18 17 14 11 9 10 12 15 20 23 24 29 30 28 27 29 30 31 30 29 27 29 29 30 30 28 28 28 27 26 24 25 21 16 14 13
25 21 17 15 14 14 13 14 12 9 7 6 7 11 13 12 15 18 20 26 35 39 47 57 50 43 44 42 41 39 39 39 38 37 35 34 33 33 30 28 24 19 18 17
28 27 23 19 16 14 14 12 10 10 8 8 9 11 12 17 17 20 24 25 22 26 27 33 38 46 49 47 54 54 54 56 48 44 42 40 38 38 36 32 29 27 24 22
30 27 26 22 16 14 16 14 14 11 10 8 8 11 15 21 22 23 26 24 26 30 33 35 37 40 38 48 51 51 54 67 69 60 55 50 46 44 41 37 33 32 30 28
31 29 27 23 19 20 19 17 15 15 13 9 8 11 16 20 22 23 25 31 39 45 40 36 35 40 45 44 48 54 54 57 69 77 75 64 63 49 47 45 38 35 34 33
35 30 29 29 24 21 18 18 17 14 12 9 9 8 8 9 11 15 19 20 29 34 27 32 41 48 56 48 49 54 60 64 65 64 65 72 87 74 56 52 41 39 39 37
34 31 26 26 23 21 20 18 17 14 12 11 10 8 7 5 5 6 9 9 5 9 14 23 29 35 37 42 46 52 57 56 58 59 66 61 68 76 74 63 49 47 45 39
28 29 27 26 25 24 19 17 15 15 13 12 10 8 7 5 7 6 7 3 6 5 15 17 11 23 32 33 36 43 42 45 50 52 48 52 57 60 71 54 49 48 46 44
Wind_Direction_500mb
271 296 262 240 219 211 224 238 249 251 215 191 183 176 174 176 162 166 167 165 178 170 180 186 199 203 207 223 239 240 250 237 231 212 209 201 225 229 222 228 231 229 229 236
230 223 226 233 230 232 226 236 254 272 252 2 144 158 166 167 164 160 154 156 188 188 190 192 198 197 197 202 229 209 203 215 204 193 199 203 206 210 213 220 226 222 218 214
229 190 211 230 49 309 201 245 293 224 53 130 154 171 170 163 163 152 162 165 177 188 190 190 181 178 182 175 184 195 193 208 205 201 217 200 178 180 189 186 186 194 175 209
255 203 224 78 68 32 22 94 318 288 24 153 154 159 160 168 165 159 160 178 182 185 189 184 178 175 175 179 195 199 194 185 192 194 203 206 196 207 233 224 202 179 205 218
262 258 144 167 45 26 346 72 7 16 138 131 134 131 140 160 158 159 167 176 184 183 183 180 184 193 204 212 221 215 204 191 192 205 216 218 212 221 212 200 195 200 221 218
240 252 253 56 7 333 301 189 21 21 147 158 152 169 158 166 148 147 166 177 173 169 166 169 178 187 187 188 183 180 175 186 191 190 184 182 191 194 185 203 204 203 213 211
261 247 257 25 338 311 245 51 350 335 172 170 192 320 156 150 139 139 151 146 142 141 141 140 139 149 156 155 161 162 164 165 164 166 175 178 175 174 188 183 186 186 191 195
255 231 234 5 285 339 347 329 351 309 179 189 161 130 145 145 144 138 137 135 137 134 125 120 123 129 132 139 142 143 147 148 153 151 149 154 156 152 150 157 163 163 167 155
329 43 62 36 36 9 353 339 340 292 182 155 158 152 149 147 146 146 147 140 138 139 137 137 135 149 164 168 166 161 163 165 167 165 159 154 157 160 164 165 165 157 147 148
266 127 129 65 75 31 25 17 8 174 170 164 164 160 152 148 149 148 155 153 148 136 136 138 138 143 161 176 181 182 185 183 178 172 171 168 155 153 138 142 149 163 194 234
239 162 177 116 49 32 36 42 56 90 142 160 164 162 156 151 149 149 145 143 141 140 141 134 142 164 181 186 181 171 174 176 172 174 183 186 185 178 200 208 192 191 204 224
327 79 329 92 27 26 29 47 68 87 128 155 167 164 162 156 158 157 151 153 145 138 127 107 109 139 171 173 165 154 148 150 159 155 147 155 180 188 179 180 186 193 203 230
127 119 91 135 73 30 43 54 80 86 126 151 161 164 168 160 157 159 162 165 151 147 125 73 151 177 192 185 173 161 163 163 161 147 155 153 152 148 157 146 137 128 129 114
180 188 192 147 159 16 294 79 118 122 139 154 164 173 153 149 155 166 169 157 185 172 176 33 264 235 211 206 190 175 171 172 155 156 156 160 156 158 154 137 129 115 105 81
219 226 242 232 245 253 358 203 197 178 162 161 168 167 174 177 179 184 178 195 205 214 223 238 217 211 200 202 194 187 172 170 163 161 162 166 159 150 146 146 138 129 65 38
210 225 237 244 241 247 241 230 217 204 187 176 176 183 194 194 199 193 197 193 205 215 218 214 218 213 202 192 188 189 186 188 167 175 169 169 165 156 153 142 130 121 114 62
197 219 236 245 244 240 241 235 229 217 200 192 183 183 188 194 193 196 195 198 205 213 210 206 210 213 202 195 187 194 194 192 181 184 183 183 172 164 165 163 162 158 173 359
224 234 231 244 252 244 223 226 210 201 199 189 179 174 180 187 194 195 196 196 198 199 206 205 207 205 202 202 197 201 200 202 200 197 201 196 192 189 186 184 183 183 205 287
207 202 198 199 181 174 161 139 143 154 159 164 176 188 192 194 202 199 196 203 205 207 211 205 215 221 216 212 206 205 209 211 212 208 210 209 206 204 206 206 210 213 218 222
174 171 164 162 145 143 156 143 129 131 132 157 171 194 205 214 212 214 217 224 226 230 221 221 251 243 232 228 235 217 221 221 222 222 221 219 217 217 219 218 217 232 240 246
174 171 164 150 147 148 149 157 164 169 176 184 218 241 238 235 232 240 243 250 256 257 257 250 265 260 249 237 240 232 228 230 227 227 227 229 225 224 227 229 237 239 243 251
180 181 179 174 170 169 171 171 169 171 197 251 253 254 259 254 253 256 252 250 250 254 245 247 246 248 249 254 250 249 249 231 228 230 230 229 232 231 230 228 233 242 247 253
186 187 187 188 195 200 200 196 198 194 200 216 237 257 260 259 261 262 265 274 267 264 256 252 250 253 255 246 246 239 237 241 246 235 234 233 232 231 232 232 236 244 247 253
187 188 195 201 205 200 198 198 201 186 179 198 225 266 271 267 264 267 267 264 260 255 263 254 257 256 250 248 245 238 244 240 242 247 250 234 223 220 234 235 236 244 252 261
197 197 198 200 199 204 208 202 194 200 206 231 262 267 240 245 241 251 260 267 272 271 266 265 265 256 253 251 250 252 249 246 249 251 254 249 244 242 223 231 236 245 252 259
202 206 209 194 206 205 198 194 212 214 237 253 265 245 231 237 269 303 291 300 312 310 296 272 259 252 251 249 250 251 253 246 243 248 248 255 249 226 219 224 236 251 256 259
186 188 186 189 190 188 195 209 226 237 241 243 229 205 219 224 260 295 257 200 129 67 34 21 323 270 255 257 259 255 248 247 247 253 253 251 246 230 233 221 242 251 259 265
Wind_Speed_850mb
19 9 8 8 21 29 34 34 34 20 28 20 27 27 31 32 29 30 27 23 36 27 33 42 50 47 44 46 39 46 51 45 38 40 37 28 27 27 27 26 22 20 18 22
15 7 10 9 8 20 29 24 26 17 13 9 25 29 30 29 29 27 25 17 25 32 28 34 41 48 47 39 36 27 22 21 29 39 38 38 29 25 24 25 25 22 18 17
22 15 15 22 5 2 5 10 15 22 7 21 24 25 28 27 26 25 23 19 22 32 37 39 44 51 42 38 33 29 23 25 27 25 33 37 30 21 17 16 15 14 13 18
13 11 25 18 10 12 5 3 7 8 4 18 26 25 25 24 24 24 23 25 27 28 41 53 49 46 48 40 26 36 32 32 27 27 28 31 37 30 27 16 18 12 18 17
16 21 6 16 9 13 14 13 14 3 8 24 30 31 19 22 24 24 26 28 29 32 30 51 46 42 33 28 33 38 33 29 30 25 30 29 28 26 24 24 17 20 20 17
7 19 15 18 13 15 14 7 20 9 12 28 36 15 10 24 27 29 25 29 31 33 35 41 43 41 40 39 39 37 36 31 27 25 25 23 24 26 22 21 26 20 18 20
10 10 8 13 18 10 15 9 21 11 12 31 21 11 41 33 32 32 37 40 38 38 43 41 36 33 36 36 34 32 31 33 32 28 26 25 27 25 22 23 25 24 22 19
7 14 15 27 3 11 17 17 18 7 8 21 9 31 43 41 45 42 44 46 45 42 39 37 34 27 26 26 30 31 29 28 29 33 26 27 26 25 27 30 23 18 13 9
8 10 7 12 13 16 19 18 13 8 7 26 26 36 43 43 48 48 50 45 44 41 36 29 25 20 18 21 23 24 24 25 26 25 26 30 28 27 24 23 20 18 13 11
5 11 9 6 9 17 22 20 14 2 13 21 31 42 44 44 46 52 49 45 36 29 22 19 16 14 11 14 17 19 19 19 20 19 21 22 19 17 13 13 11 11 9 9
7 10 7 8 11 15 18 19 18 12 15 22 32 40 42 47 47 39 41 32 29 27 21 16 8 7 10 13 14 13 13 14 14 15 18 20 20 19 20 19 19 15 11 13
2 9 2 9 5 8 13 16 16 15 13 18 28 40 41 44 54 52 37 35 31 24 15 7 5 5 7 11 15 15 14 13 15 14 14 13 15 17 17 15 14 12 8 4
2 3 2 2 4 5 8 8 9 10 14 19 24 34 42 52 45 32 28 24 25 16 6 3 2 6 8 11 14 17 16 17 17 17 16 17 16 14 15 16 14 11 8 6
7 6 9 4 3 5 2 2 6 10 13 16 23 32 48 29 28 23 18 16 16 10 4 0 4 8 10 12 15 17 18 19 15 15 16 17 18 17 14 12 10 10 9 8
9 7 5 6 4 2 1 8 10 11 14 18 24 39 43 38 35 35 31 26 22 15 13 13 16 21 19 18 20 21 19 18 19 17 17 18 18 17 16 15 13 10 5 6
12 11 10 10 9 9 9 9 17 19 19 21 26 33 37 29 33 36 37 37 32 24 18 18 22 23 26 30 31 26 24 26 23 20 22 18 16 16 14 12 11 9 6 3
13 12 13 13 12 11 10 14 15 20 23 23 24 26 28 28 29 32 37 36 28 22 22 25 24 26 27 29 28 25 22 25 27 21 19 18 15 14 13 13 12 9 4 4
12 10 9 10 10 10 10 7 12 17 19 21 22 23 24 28 30 32 32 29 26 25 26 24 26 24 28 31 29 23 22 22 22 19 19 18 17 17 16 14 12 9 6 6
13 11 9 6 7 9 8 8 12 17 18 18 14 14 16 17 24 27 29 29 28 29 28 27 28 22 25 29 29 26 25 25 25 24 24 25 25 20 18 17 14 12 9 7
17 14 10 11 12 14 15 15 18 17 14 11 9 10 12 15 20 23 24 29 30 28 27 29 30 31 30 29 27 29 29 30 30 28 28 28 27 26 24 25 21 16 14 13
25 21 17 15 14 14 13 14 12 9 7 6 7 11 13 12 15 18 20 26 35 39 47 57 50 43 44 42 41 39 39 39 38 37 35 34 33 33 30 28 24 19 18 17
28 27 23 19 16 14 14 12 10 10 8 8 9 11 12 17 17 20 24 25 22 26 27 33 38 46 49 47 54 54 54 56 48 44 42 40 38 38 36 32 29 27 24 22
30 27 26 22 16 14 16 14 14 11 10 8 8 11 15 21 22 23 26 24 26 30 33 35 37 40 38 48 51 51 54 67 69 60 55 50 46 44 41 37 33 32 30 28
31 29 27 23 19 20 19 17 15 15 13 9 8 11 16 20 22 23 25 31 39 45 40 36 35 40 45 44 48 54 54 57 69 77 75 64 63 49 47 45 38 35 34 33
35 30 29 29 24 21 18 18 17 14 12 9 9 8 8 9 11 15 19 20 29 34 27 32 41 48 56 48 49 54 60 64 65 64 65 72 87 74 56 52 41 39 39 37
34 31 26 26 23 21 20 18 17 14 12 11 10 8 7 5 5 6 9 9 5 9 14 23 29 35 37 42 46 52 57 56 58 59 66 61 68 76 74 63 49 47 45 39
28 29 27 26 25 24 19 17 15 15 13 12 10 8 7 5 7 6 7 3 6 5 15 17 11 23 32 33 36 43 42 45 50 52 48 52 57 60 71 54 49 48 46 44
Wind_Direction_850mb
271 296 262 240 219 211 224 238 249 251 215 191 183 176 174 176 162 166 167 165 178 170 180 186 199 203 207 223 239 240 250 237 231 212 209 201 225 229 222 228 231 229 229 236
230 223 226 233 230 232 226 236 254 272 252 2 144 158 166 167 164 160 154 156 188 188 190 192 198 197 197 202 229 209 203 215 204 193 199 203 206 210 213 220 226 222 218 214
229 190 211 230 49 309 201 245 293 224 53 130 154 171 170 163 163 152 162 165 177 188 190 190 181 178 182 175 184 195 193 208 205 201 217 200 178 180 189 186 186 194 175 209
255 203 224 78 68 32 22 94 318 288 24 153 154 159 160 168 165 159 160 178 182 185 189 184 178 175 175 179 195 199 194 185 192 194 203 206 196 207 233 224 202 179 205 218
262 258 144 167 45 26 346 72 7 16 138 131 134 131 140 160 158 159 167 176 184 183 183 180 184 193 204 212 221 215 204 191 192 205 216 218 212 221 212 200 195 200 221 218
240 252 253 56 7 333 301 189 21 21 147 158 152 169 158 166 148 147 166 177 173 169 166 169 178 187 187 188 183 180 175 186 191 190 184 182 191 194 185 203 204 203 213 211
261 247 257 25 338 311 245 51 350 335 172 170 192 320 156 150 139 139 151 146 142 141 141 140 139 149 156 155 161 162 164 165 164 166 175 178 175 174 188 183 186 186 191 195
255 231 234 5 285 339 347 329 351 309 179 189 161 130 145 145 144 138 137 135 137 134 125 120 123 129 132 139 142 143 147 148 153 151 149 154 156 152 150 157 163 163 167 155
329 43 62 36 36 9 353 339 340 292 182 155 158 152 149 147 146 146 147 140 138 139 137 137 135 149 164 168 166 161 163 165 167 165 159 154 157 160 164 165 165 157 147 148
266 127 129 65 75 31 25 17 8 174 170 164 164 160 152 148 149 148 155 153 148 136 136 138 138 143 161 176 181 182 185 183 178 172 171 168 155 153 138 142 149 163 194 234
239 162 177 116 49 32 36 42 56 90 142 160 164 162 156 151 149 149 145 143 141 140 141 134 142 164 181 186 181 171 174 176 172 174 183 186 185 178 200 208 192 191 204 224
327 79 329 92 27 26 29 47 68 87 128 155 167 164 162 156 158 157 151 153 145 138 127 107 109 139 171 173 165 154 148 150 159 155 147 155 180 188 179 180 186 193 203 230
127 119 91 135 73 30 43 54 80 86 126 151 161 164 168 160 157 159 162 165 151 147 125 73 151 177 192 185 173 161 163 163 161 147 155 153 152 148 157 146 137 128 129 114
180 188 192 147 159 16 294 79 118 122 139 154 164 173 153 149 155 166 169 157 185 172 176 33 264 235 211 206 190 175 171 172 155 156 156 160 156 158 154 137 129 115 105 81
219 226 242 232 245 253 358 203 197 178 162 161 168 167 174 177 179 184 178 195 205 214 223 238 217 211 200 202 194 187 172 170 163 161 162 166 159 150 146 146 138 129 65 38
210 225 237 244 241 247 241 230 217 204 187 176 176 183 194 194 199 193 197 193 205 215 218 214 218 213 202 192 188 189 186 188 167 175 169 169 165 156 153 142 130 121 114 62
197 219 236 245 244 240 241 235 229 217 200 192 183 183 188 194 193 196 195 198 205 213 210 206 210 213 202 195 187 194 194 192 181 184 183 183 172 164 165 163 162 158 173 359
224 234 231 244 252 244 223 226 210 201 199 189 179 174 180 187 194 195 196 196 198 199 206 205 207 205 202 202 197 201 200 202 200 197 201 196 192 189 186 184 183 183 205 287
207 202 198 199 181 174 161 139 143 154 159 164 176 188 192 194 202 199 196 203 205 207 211 205 215 221 216 212 206 205 209 211 212 208 210 209 206 204 206 206 210 213 218 222
174 171 164 162 145 143 156 143 129 131 132 157 171 194 205 214 212 214 217 224 226 230 221 221 251 243 232 228 235 217 221 221 222 222 221 219 217 217 219 218 217 232 240 246
174 171 164 150 147 148 149 157 164 169 176 184 218 241 238 235 232 240 243 250 256 257 257 250 265 260 249 237 240 232 228 230 227 227 227 229 225 224 227 229 237 239 243 251
180 181 179 174 170 169 171 171 169 171 197 251 253 254 259 254 253 256 252 250 250 254 245 247 246 248 249 254 250 249 249 231 228 230 230 229 232 231 230 228 233 242 247 253
186 187 187 188 195 200 200 196 198 194 200 216 237 257 260 259 261 262 265 274 267 264 256 252 250 253 255 246 246 239 237 241 246 235 234 233 232 231 232 232 236 244 247 253
187 188 195 201 205 200 198 198 201 186 179 198 225 266 271 267 264 267 267 264 260 255 263 254 257 256 250 248 245 238 244 240 242 247 250 234 223 220 234 235 236 244 252 261
197 197 198 200 199 204 208 202 194 200 206 231 262 267 240 245 241 251 260 267 272 271 266 265 265 256 253 251 250 252 249 246 249 251 254 249 244 242 223 231 236 245 252 259
202 206 209 194 206 205 198 194 212 214 237 253 265 245 231 237 269 303 291 300 312 310 296 272 259 252 251 249 250 251 253 246 243 248 248 255 249 226 219 224 236 251 256 259
186 188 186 189 190 188 195 209 226 237 241 243 229 205 219 224 260 295 257 200 129 67 34 21 323 270 255 257 259 255 248 247 247 253 253 251 246 230 233 221 242 251 259 265